NOAA 17 DEB, 48165

Orbit data source: Space-Track

NOAA 17 DEB, 48165 is space debris in SSO originally from a launch on Mon, 24 Jun 2002 UTC launched from the Air Force Western Test Range (AFWTR). Debris objects in space refer to the collection of defunct objects orbiting the Earth. Examples of debris include non-operational satellites, rocket bodies, and fragments generated from explosions, collisions, or faulty payload assembly.

Loading next visibility...
Identifier
48165, 2002-032F
Orbit
SSO
Country
Flag of USUS
Related business
Manufacturer
Unknown
Mission
Spacecraft
Bus & Motor
Unknown
Mass
Unknown
Launch date (UTC)
2002-06-24 (23 years ago)
Launch vehicle
Unknown
Launch site
Air Force Western Test Range (AFWTR)
Object type
Payload
Rocket body
Debris
Shape & HBR
Unknown shape, 0.1 m
Radar Cross Section
Small (<0.1 m²)

Expand to show TLE details & history
Last TLE update: 1 day ago

TLE from 1 day ago
0 NOAA 17 DEB
1 48165U 02032F   25348.42709308  .00009325  00000-0  13561-2 0  9993
2 48165  98.7035  36.5430 0060217  80.1212 280.6785 14.74916850253112
Epoch: 2025-12-14T10:15Z
TLE epoch observation values (Epoch: 2025-12-14T10:15:00.842Z)
Latitude
-0.00007°
Longitude
159.44933°
Altitude
640.813 km
Speed
7.542 km/s
True Right ascension
02h 26m 10s
True Declination
0° 00' 00"
Sunlit
Object was in full shadow at epoch
Visualization orbit readout
Latitude
Unknown
Longitude
Unknown
Altitude
Unknown
Speed
Unknown
Apparent Right ascension
Unknown
Apparent Declination
Unknown
Sunlit
N/A
Visualization observer readout
Local Sidereal Time
17:04:31
Azimuth
Unknown
Elevation
Unknown
Doppler factor
Unknown
Orbital elements
Apogee altitude
684.777 km
Perigee altitude
600.224 km
Semi-major axis
7,020.637 km
Eccentricity
0.00602
Inclination
98.7035°
RAAN
36.543°
Arg. of periapsis
80.1212°
True anomaly
279.99948°
Mean anomaly
280.6785°
Eccentric anomaly
280.33908°
Mean motion
3.68959 °/min
Orbital period
97.57 mins
BSTAR
0.0013561
Loading maneuver chart data...
Computing Atmospheric mass density...
Loading historical data...
Loading historical data...
Loading historical data...
Loading historical data...
Loading historical data...
Loading historical data...
Loading historical data...

Documentation

Showing up to 5 results
|